Weather History for Philip, SD

Change the Weather History Date:

Thursday, August 14, 2014

  Actual Average Record
Temperature  
Mean Temperature 86 °F 74 °F  
Max Temperature 100 °F 90 °F 102 °F (1952)
Min Temperature 71 °F 59 °F 44 °F (2004)
Degree Days  
Heating Degree Days 0 0  
Month to date heating degree days 0 0  
Since 1 June heating degree days 94 71  
Since 1 July heating degree days 16 8  
Cooling Degree Days 21 10  
Month to date cooling degree days 126 149  
Year to date cooling degree days 472 604  
Since 1 June cooling degree days 432 577  
Growing Degree Days 36 (Base 50)    
Moisture  
Dew Point 64 °F    
Average Humidity 53    
Maximum Humidity 73    
Minimum Humidity 33    
Precipitation  
Precipitation 0.27 in 0.05 in 0.67 in (1968)
Month to date precipitation 1.29 0.68  
Year to date precipitation 10.22 12.56  
Sea Level Pressure  
Sea Level Pressure 29.79 in    
Wind  
Wind Speed 10 mph (SSE)    
Max Wind Speed 40 mph    
Max Gust Speed 50 mph    
Visibility 9 miles    
Events Rain , Thunderstorm    
T = Trace of Precipitation, MM = Missing Value Source: NWS Daily Summary

Daily Weather History Graph

Daily Weather History Graph

Search for Another Location

Airport:

Trip Planner

Search our weather history database for the weather conditions in past years. The results will help you decide how hot, cold, wet, or windy it might be!

Date:

Astronomy

Aug. 14, 2014 Rise Set
Actual Time 5:49 AM MDT 7:52 PM MDT
Civil Twilight 5:17 AM MDT 8:23 PM MDT
Nautical Twilight 4:38 AM MDT 9:02 PM MDT
Astronomical Twilight 3:56 AM MDT 9:44 PM MDT
Moon 10:04 PM MDT (8/14) 10:39 AM MDT (8/14)
Length of Visible Light 15h 05m
Length of Day
14h 03m
Waning Gibbous, 78% of the Moon is Illuminated
Aug 14
Waning Gibbous
Aug 17
Last Quarter
Aug 25
New
Sep 2
First Quarter
Sep 8
Full

Hourly Weather History & Observations

Time (MDT) Temp. Heat Index Dew Point Humidity Pressure Visibility Wind Dir Wind Speed Gust Speed Precip Events Conditions
12:55 AM 75.9 °F - 62.1 °F 62% 29.83 in 10.0 mi ESE 6.9 mph - N/A   Clear
1:55 AM 72.0 °F - 62.1 °F 71% 29.82 in 10.0 mi East 9.2 mph - N/A   Clear
2:55 AM 72.0 °F - 62.1 °F 71% 29.81 in 10.0 mi ESE 4.6 mph - N/A   Clear
3:46 AM 84.9 °F 83.7 °F 55.9 °F 37% 29.86 in 10.0 mi SSW 26.5 mph 38.0 mph N/A Thunderstorm Clear
3:55 AM 82.0 °F 82.0 °F 57.9 °F 44% 29.77 in 10.0 mi SSW 19.6 mph 34.5 mph 0.00 in Rain , Thunderstorm Light Rain
4:05 AM 84.9 °F 83.6 °F 55.0 °F 36% 29.85 in 10.0 mi South 18.4 mph 36.8 mph 0.00 in Rain Light Rain
4:55 AM 78.1 °F - 62.1 °F 58% 29.78 in 10.0 mi South 15.0 mph - 0.00 in   Scattered Clouds
5:55 AM 75.9 °F - 63.0 °F 64% 29.79 in 10.0 mi South 8.1 mph - N/A   Clear
6:55 AM 75.0 °F - 62.1 °F 64% 29.80 in 10.0 mi SE 6.9 mph - N/A   Partly Cloudy
7:55 AM 73.9 °F - 64.0 °F 71% 29.83 in 10.0 mi SSW 4.6 mph - 0.00 in   Partly Cloudy
8:55 AM 77.0 °F - 64.0 °F 64% 29.84 in 10.0 mi East 6.9 mph - N/A   Clear
9:55 AM 80.1 °F 81.7 °F 64.0 °F 58% 29.82 in 10.0 mi SE 6.9 mph - N/A   Clear
10:55 AM 82.9 °F 84.4 °F 64.0 °F 53% 29.80 in 10.0 mi SE 5.8 mph - N/A   Clear
11:55 AM 88.0 °F 90.3 °F 66.0 °F 48% 29.78 in 10.0 mi ESE 8.1 mph 17.3 mph N/A   Clear
12:55 PM 93.0 °F 94.6 °F 64.0 °F 38% 29.76 in 10.0 mi SSE 9.2 mph 18.4 mph N/A   Clear
1:55 PM 93.9 °F 96.1 °F 64.9 °F 38% 29.75 in 10.0 mi SE 12.7 mph 20.7 mph N/A   Clear
2:55 PM 99.0 °F 102.3 °F 64.9 °F 33% 29.72 in 10.0 mi SSE 16.1 mph 24.2 mph N/A   Clear
3:55 PM 96.1 °F 97.3 °F 63.0 °F 33% 29.70 in 10.0 mi SSE 11.5 mph - N/A   Partly Cloudy
4:18 PM 95.0 °F 97.0 °F 64.0 °F 36% 29.77 in 10.0 mi SSE 5.8 mph - N/A Thunderstorm Partly Cloudy
4:29 PM 80.1 °F 82.9 °F 69.1 °F 69% 29.85 in 1.2 mi North - - 0.00 in Rain , Thunderstorm Rain
4:34 PM 78.1 °F - 66.0 °F 66% 29.82 in 0.5 mi Variable 6.9 mph 49.5 mph 0.17 in Rain , Thunderstorm Heavy Thunderstorms and Rain
4:44 PM 75.0 °F - 68.0 °F 79% 29.81 in 2.5 mi North 13.8 mph - 0.25 in Rain , Thunderstorm Light Thunderstorms and Rain
4:52 PM 77.0 °F - 66.2 °F 69% 29.81 in 3.0 mi NE 13.8 mph - 0.25 in Rain , Thunderstorm Light Thunderstorms and Rain
4:55 PM 75.9 °F - 66.0 °F 71% 29.74 in 3.0 mi ENE 12.7 mph - 0.25 in Rain , Thunderstorm Light Thunderstorms and Rain
5:19 PM 75.0 °F - 64.0 °F 69% 29.85 in - West 13.8 mph - 0.00 in Thunderstorm Thunderstorm
5:55 PM 73.9 °F - 64.0 °F 71% 29.77 in 10.0 mi SW 5.8 mph - 0.01 in Rain , Thunderstorm Light Thunderstorms and Rain
6:07 PM 75.9 °F - 66.0 °F 71% 29.82 in 10.0 mi South 6.9 mph - 0.01 in Rain , Thunderstorm Light Rain
6:47 PM 77.0 °F - 66.0 °F 69% 29.82 in 10.0 mi SSW 4.6 mph - 0.01 in Rain Light Rain
6:55 PM 78.1 °F - 68.0 °F 71% 29.75 in 10.0 mi South 8.1 mph - 0.01 in Rain Light Rain
7:55 PM 78.1 °F - 68.0 °F 71% 29.73 in 10.0 mi SE 4.6 mph - 0.00 in   Clear
8:51 PM 77.0 °F - 66.2 °F 69% 29.83 in 10.0 mi Calm Calm - N/A Thunderstorm Clear
8:55 PM 78.1 °F - 64.9 °F 64% 29.77 in 10.0 mi South 8.1 mph - N/A Thunderstorm Clear
9:21 PM 79.0 °F - 62.1 °F 56% 29.83 in 10.0 mi South 9.2 mph - N/A   Scattered Clouds
9:55 PM 75.9 °F - 64.0 °F 67% 29.77 in 10.0 mi NNW 6.9 mph - N/A   Partly Cloudy
10:55 PM 78.1 °F - 61.0 °F 56% 29.76 in 10.0 mi SW 11.5 mph - N/A   Partly Cloudy
11:55 PM 77.0 °F - 61.0 °F 58% 29.77 in 10.0 mi West 16.1 mph 24.2 mph N/A   Clear